This is the latest recevied weather packets stored in our database for station/object OK1PHM-12. If no packets are shown the sender has not sent any weather packets the latest 10 day(s).
| Time | Temp. | Humidity | Pressure | Rain* | Wind** | Luminosity | Snow |
|---|---|---|---|---|---|---|---|
| 1777520062 | -1.67° C | 72% | 1032.4 hPa | - | - | - | - |
| 1777519161 | -1.11° C | 72% | 1032.3 hPa | - | - | - | - |
| 1777518260 | -1.11° C | 71% | 1032.1 hPa | - | - | - | - |
| 1777517359 | -1.11° C | 71% | 1032.1 hPa | - | - | - | - |
| 1777516458 | -0.56° C | 70% | 1032 hPa | - | - | - | - |
| 1777515557 | -1.11° C | 71% | 1032 hPa | - | - | - | - |
| 1777514656 | -0.56° C | 71% | 1031.9 hPa | - | - | - | - |
| 1777512854 | -0.56° C | 69% | 1032.1 hPa | - | - | - | - |
| 1777511953 | -0.56° C | 69% | 1032 hPa | - | - | - | - |
| 1777510151 | 0° C | 68% | 1032.1 hPa | - | - | - | - |
| 1777509250 | 0° C | 66% | 1032.2 hPa | - | - | - | - |
| 1777508349 | 0° C | 65% | 1032.1 hPa | - | - | - | - |
| 1777507449 | 0.56° C | 63% | 1032 hPa | - | - | - | - |
| 1777506548 | 0.56° C | 64% | 1031.9 hPa | - | - | - | - |
| 1777505647 | 0° C | 65% | 1032.1 hPa | - | - | - | - |
| 1777504745 | 1.11° C | 63% | 1031.9 hPa | - | - | - | - |
| 1777501142 | 1.11° C | 62% | 1031.6 hPa | - | - | - | - |
| 1777499341 | 1.67° C | 61% | 1031.4 hPa | - | - | - | - |
| 1777498440 | 2.22° C | 58% | 1031.3 hPa | - | - | - | - |
| 1777497539 | 2.78° C | 56% | 1031.3 hPa | - | - | - | - |
| 1777496638 | 2.78° C | 56% | 1031.2 hPa | - | - | - | - |
| 1777495738 | 3.33° C | 53% | 1031.1 hPa | - | - | - | - |
| 1777495637 | 3.89° C | 52% | 1030.9 hPa | - | - | - | - |
| 1777493936 | 4.44° C | 47% | 1030.8 hPa | - | - | - | - |
| 1777493035 | 4.44° C | 43% | 1030.7 hPa | - | - | - | - |
* Rain since midnight (hover to see other rain measurements)
** Current wind speed in m/s (hover to see current wind gust speed)